Zurück zum Katalog

STARLINK-30962

AktivKommunikationVLEO
NORAD 58458·PAYLOAD·🇺🇸 United States

Gestartet Nov 28, 2023 von Cape Canaveral Space Force Station

Loading…

Nächste Überflüge (nächste 24 Stunden)

TLE

AktuellSource: CelesTrak SupGP

Epoche: Sep 14, 2026, 21:07 UTC

1 58458C 23183X   26257.88034722  .00064716  00000+0  23438-2 0  2575
2 58458  43.0040  52.7372 0001300 273.9992  87.2811 15.27549638    12

Verfolge STARLINK-30962 in Echtzeit mit AllMySat

Download on the App Store